Ketchikan, AK NWLON current weather conditions

sailwx.info

Wind from 119 at 13 knots gusting 18

Air temperature 6.7° C
Water temperature 6.7° C

Last reported at 2020-Jan-22 14:42 UTC.
Time now 2020-Jan-22 15:27 UTC

Location: N 55°20' W 131°38'.
View on Google Maps.

See reports from other nearby stations

  
Tides and Currents Weather Stations Pressure Air Temp Water Temp Dewpoint Dewpoint Depression Visibility Wind Speed Wind Dir Waves Ship Positions
date/time (UTC)wind fromknots sea level pressurealtimeterstation pressurevisibilityair tempwater tempwave heightnotes
2020-Jan-22 14:42 119 13 gusting 18 6.7 6.7
2020-Jan-22 14:36 122 12 gusting 18 6.7 6.7
2020-Jan-22 14:30 114 11 gusting 16 6.1 6.7
2020-Jan-22 14:24 112 10 gusting 16 6.1 6.7
2020-Jan-22 14:18 119 12 gusting 19 6.1 6.7
2020-Jan-22 14:12 125 13 gusting 18 6.1 6.7
2020-Jan-22 14:06 111 11 gusting 16 6.7 6.7
2020-Jan-22 14:00 126 11 gusting 15 6.7 6.7
2020-Jan-22 13:54 118 11 gusting 16 6.7 6.7
2020-Jan-22 13:48 113 8 gusting 15 6.1 6.7
2020-Jan-22 13:42 119 13 gusting 19 6.7 6.7
2020-Jan-22 13:36 112 11 gusting 18 6.7 6.7
2020-Jan-22 13:30 120 12 gusting 15 6.7 6.7
2020-Jan-22 13:24 118 13 gusting 19 6.7 6.7
2020-Jan-22 13:18 108 12 gusting 19 6.7 6.7
2020-Jan-22 13:12 121 11 gusting 16 6.1 6.7
2020-Jan-22 13:06 127 13 gusting 18 6.1 6.7
2020-Jan-22 13:00 120 10 gusting 14 6.1 6.7
2020-Jan-22 12:54 135 13 gusting 16 6.1 6.7
2020-Jan-22 12:48 131 11 gusting 17 6.1 6.7
2020-Jan-22 12:42 131 11 gusting 16 6.1 6.7
2020-Jan-22 12:36 124 13 gusting 20 6.1 6.7
2020-Jan-22 12:30 132 13 gusting 17 6.7 6.7
2020-Jan-22 12:24 138 10 gusting 13 6.7 6.7
2020-Jan-22 12:18 128 10 gusting 17 6.7 6.7
2020-Jan-22 12:12 131 10 gusting 14 6.1 6.7
2020-Jan-22 12:06 127 10 gusting 13 6.1 6.7
2020-Jan-22 12:00 126 9 gusting 13 6.1 6.7
2020-Jan-22 11:54 109 10 gusting 14 6.7 6.7
2020-Jan-22 11:48 120 10 gusting 16 6.7 6.7
2020-Jan-22 11:42 128 12 gusting 15 6.1 6.7
2020-Jan-22 11:36 113 11 gusting 17 6.1 6.7
2020-Jan-22 11:30 119 9 gusting 13 6.1 6.7
2020-Jan-22 11:24 127 8 gusting 14 6.1 6.7
2020-Jan-22 11:18 110 10 gusting 14 6.1 6.7
2020-Jan-22 11:12 117 9 gusting 16 6.1 6.7
2020-Jan-22 11:06 127 11 gusting 19 6.7 6.7
2020-Jan-22 11:00 122 8 gusting 15 6.1 6.7
2020-Jan-22 10:54 122 11 gusting 16 6.1 6.7
2020-Jan-22 10:48 122 12 gusting 15 6.1 6.7
2020-Jan-22 10:42 130 13 gusting 16 6.1 6.7
2020-Jan-22 10:36 131 10 gusting 13 6.1 6.7
2020-Jan-22 10:30 135 10 gusting 13 6.1 6.7
2020-Jan-22 10:24 125 8 gusting 13 6.1 6.7
2020-Jan-22 10:18 137 9 gusting 13 6.1 6.7
2020-Jan-22 10:12 109 7 gusting 13 6.1 6.7
2020-Jan-22 10:06 128 8 gusting 13 6.1 6.7
2020-Jan-22 10:00 130 9 gusting 13 6.1 6.7
2020-Jan-22 09:54 118 7 gusting 13 6.1 6.7
2020-Jan-22 09:48 119 8 gusting 13 6.1 6.7
2020-Jan-22 09:42 132 9 gusting 11 6.1 6.7
2020-Jan-22 09:36 120 7 gusting 13 6.1 6.7
2020-Jan-22 09:30 122 7 gusting 14 6.1 6.7
2020-Jan-22 09:24 122 9 gusting 13 6.1 6.7
2020-Jan-22 09:18 108 8 gusting 16 5.6 6.7
2020-Jan-22 09:12 123 9 gusting 12 6.1 6.7
2020-Jan-22 09:06 117 7 gusting 13 6.1 6.7
2020-Jan-22 09:00 117 6 gusting 13 6.1 6.7
2020-Jan-22 08:54 112 7 gusting 13 6.1 6.7
2020-Jan-22 08:48 120 6 gusting 11 5.6 6.7
2020-Jan-22 08:42 119 9 gusting 13 5.6 6.7
2020-Jan-22 08:36 112 7 gusting 13 6.1 6.7
2020-Jan-22 08:30 114 9 gusting 13 6.1 6.7
2020-Jan-22 08:24 123 10 gusting 13 6.1 6.7
2020-Jan-22 08:18 117 9 gusting 13 6.1 6.7
2020-Jan-22 08:12 121 7 gusting 13 6.1 6.7
2020-Jan-22 08:06 112 6 gusting 12 6.1 6.7
2020-Jan-22 08:00 107 8 gusting 13 6.1 6.7
2020-Jan-22 07:54 123 8 gusting 15 6.1 6.7
2020-Jan-22 07:48 116 8 gusting 12 6.1 6.7
2020-Jan-22 07:42 109 8 gusting 15 6.1 6.7
2020-Jan-22 07:36 114 10 gusting 15 6.1 6.7
2020-Jan-22 07:30 114 8 gusting 13 5.6 6.7
2020-Jan-22 07:24 112 10 gusting 14 6.1 6.7
2020-Jan-22 07:18 111 8 gusting 15 6.1 6.7
2020-Jan-22 07:12 120 6 gusting 10 5.6 6.7
2020-Jan-22 07:06 121 7 gusting 11 5.6 6.7
2020-Jan-22 07:00 125 6 gusting 10 5.6 6.7
2020-Jan-22 06:54 119 6 gusting 9 5.6 6.7
2020-Jan-22 06:48 131 5 gusting 7 5.6 6.7
2020-Jan-22 06:42 130 5 gusting 11 5.6 6.7
2020-Jan-22 06:36 121 6 gusting 9 5.6 6.7
2020-Jan-22 06:30 128 1 gusting 4 5.0 6.7
2020-Jan-22 06:24 126 2 gusting 6 5.0 6.7
2020-Jan-22 06:18 068 2 gusting 6 5.0 6.7
2020-Jan-22 06:12 110 3 gusting 7 5.0 6.7
2020-Jan-22 06:06 123 2 gusting 5 5.0 6.7
2020-Jan-22 06:00 136 1 gusting 5 5.0 6.7
2020-Jan-22 05:54 076 1 gusting 5 5.0 6.7
2020-Jan-22 05:48 116 2 gusting 6 5.0 6.7
2020-Jan-22 05:42 114 2 gusting 4 4.4 6.7
2020-Jan-22 05:36 129 4 gusting 5 5.0 6.7
2020-Jan-22 05:30 109 0 gusting 2 5.0 6.7
2020-Jan-22 05:24 116 1 gusting 3 5.0 6.7
2020-Jan-22 05:18 113 0 gusting 4 5.0 6.7
2020-Jan-22 05:12 099 1 gusting 5 5.0 6.7
2020-Jan-22 05:06 117 2 gusting 5 4.4 6.7
2020-Jan-22 05:00 132 3 gusting 6 5.0 6.7
2020-Jan-22 04:54 108 1 gusting 2 4.4 6.7
2020-Jan-22 04:48 110 0 gusting 1 4.4 6.7
2020-Jan-22 04:42 028 4.4 6.7
2020-Jan-22 04:36 060 0 gusting 1 4.4 6.7
2020-Jan-22 04:30 021 1 gusting 1 4.4 6.7
2020-Jan-22 04:24 018 0 gusting 2 4.4 6.7
2020-Jan-22 04:18 336 0 gusting 2 5.0 6.7
2020-Jan-22 04:12 259 5.0 6.7
2020-Jan-22 04:06 116 1 gusting 5 5.0 6.7
2020-Jan-22 04:00 112 5 gusting 7 5.6 6.7
2020-Jan-22 03:54 124 5 gusting 8 5.6 6.7
2020-Jan-22 03:48 127 6 gusting 8 5.6 6.7
2020-Jan-22 03:42 133 6 gusting 10 5.6 6.7
2020-Jan-22 03:36 127 8 gusting 11 5.6 6.7
2020-Jan-22 03:30 118 7 gusting 12 6.1 6.7
2020-Jan-22 03:24 132 6 gusting 11 6.1 6.7
2020-Jan-22 03:18 139 7 gusting 11 6.1 6.7
2020-Jan-22 03:12 114 5 gusting 12 6.1 6.7
2020-Jan-22 03:06 123 8 gusting 13 6.1 6.7
2020-Jan-22 03:00 137 8 gusting 12 6.1 6.7
2020-Jan-22 02:54 121 8 gusting 16 6.1 6.7
2020-Jan-22 02:48 127 7 gusting 15 6.1 6.7
2020-Jan-22 02:42 129 12 gusting 17 6.1 6.7
2020-Jan-22 02:36 111 10 gusting 15 6.7 6.7
2020-Jan-22 02:30 123 6 gusting 11 6.1 6.7
2020-Jan-22 02:24 121 7 gusting 11 6.1 6.7
2020-Jan-22 02:18 139 10 gusting 14 6.7 6.7
2020-Jan-22 02:12 136 13 gusting 17 6.7 6.7
2020-Jan-22 02:06 132 10 gusting 13 6.1 6.7
2020-Jan-22 02:00 133 12 gusting 14 6.7 6.7
2020-Jan-22 01:54 130 11 gusting 15 6.1 6.7
2020-Jan-22 01:48 138 11 gusting 14 6.7 6.7
2020-Jan-22 01:42 129 10 gusting 16 6.7 6.7
2020-Jan-22 01:36 132 12 gusting 15 6.7 6.7
2020-Jan-22 01:30 127 11 gusting 17 6.7 6.7
2020-Jan-22 01:24 117 9 gusting 14 6.7 6.7
2020-Jan-22 01:18 137 13 gusting 16 6.7 6.7
2020-Jan-22 01:12 137 12 gusting 16 6.7 6.7
2020-Jan-22 01:06 135 12 gusting 13 6.7 6.7
2020-Jan-22 01:00 135 11 gusting 14 6.7 6.7
2020-Jan-22 00:54 124 9 gusting 15 6.7 6.7
2020-Jan-22 00:48 137 12 gusting 19 6.7 6.7
2020-Jan-22 00:42 127 10 gusting 15 6.7 6.7
2020-Jan-22 00:36 143 10 gusting 17 6.7 6.7
2020-Jan-22 00:30 136 12 gusting 18 6.7 6.7
2020-Jan-22 00:24 126 11 gusting 17 6.7 6.7
2020-Jan-22 00:18 139 10 gusting 19 6.7 6.7
2020-Jan-22 00:12 124 8 gusting 13 6.7 6.7
2020-Jan-22 00:06 128 8 gusting 14 6.7 6.7
2020-Jan-22 00:00 119 5 gusting 13 6.7 6.7
2020-Jan-21 23:54 141 10 gusting 13 6.7 6.7
2020-Jan-21 23:48 107 8 gusting 15 6.7 6.7
2020-Jan-21 23:42 106 9 gusting 15 6.7 6.7
2020-Jan-21 23:36 102 7 gusting 13 6.7 6.7
2020-Jan-21 23:30 117 6 gusting 15 6.1 6.7
2020-Jan-21 23:24 132 6 gusting 10 6.1 6.7
2020-Jan-21 23:18 130 5 gusting 11 6.1 6.7
2020-Jan-21 23:12 117 6 gusting 9 6.1 6.7
2020-Jan-21 23:06 130 5 gusting 7 6.1 6.7
2020-Jan-21 23:00 132 4 gusting 13 6.1 6.7
2020-Jan-21 22:54 130 6 gusting 10 6.1 6.7
2020-Jan-21 22:48 138 5 gusting 11 6.1 6.7
2020-Jan-21 22:42 116 4 gusting 6 5.6 6.7
2020-Jan-21 22:36 122 3 gusting 5 5.6 6.7
2020-Jan-21 22:30 109 4 gusting 9 5.6 6.7
2020-Jan-21 22:24 109 4 gusting 6 5.6 6.7
2020-Jan-21 22:18 110 3 gusting 5 5.0 6.7
2020-Jan-21 22:12 048 1 gusting 2 4.4 6.7
2020-Jan-21 22:06 076 4.4 6.7
2020-Jan-21 22:00 314 1 gusting 2 4.4 6.7
2020-Jan-21 21:54 349 4.4 6.7
2020-Jan-21 21:48 356 4.4 6.7
2020-Jan-21 21:42 319 1 gusting 1 4.4 6.7
2020-Jan-21 21:36 303 0 gusting 3 4.4 6.7
2020-Jan-21 21:30 235 2 gusting 3 4.4 6.7
2020-Jan-21 21:24 297 0 gusting 3 4.4 6.7
2020-Jan-21 21:18 253 2 gusting 4 4.4 6.7
2020-Jan-21 21:12 304 4 gusting 6 4.4 6.7
2020-Jan-21 21:06 285 5 gusting 5 4.4 6.7
2020-Jan-21 21:00 350 0 gusting 3 4.4 6.7
2020-Jan-21 20:54 313 2 gusting 3 4.4 6.7
2020-Jan-21 20:48 088 1 gusting 2 3.9 6.7
2020-Jan-21 20:42 023 0 gusting 1 4.4 6.7
2020-Jan-21 20:36 348 0 gusting 3 4.4 6.7
2020-Jan-21 20:30 346 1 gusting 6 4.4 6.7
2020-Jan-21 20:24 305 4 gusting 6 4.4 6.7
2020-Jan-21 20:18 321 2 gusting 5 4.4 6.7
2020-Jan-21 20:12 310 3 gusting 3 4.4 6.7
2020-Jan-21 20:06 006 1 gusting 5 3.9 6.7
2020-Jan-21 20:00 318 0 gusting 3 3.9 6.7
2020-Jan-21 19:54 351 2 gusting 3 3.9 6.7
2020-Jan-21 19:48 015 3.9 6.7
2020-Jan-21 19:42 056 0 gusting 1 3.9 6.7
2020-Jan-21 19:36 326 3.9 6.7
2020-Jan-21 19:30 292 1 gusting 4 3.3 6.7
2020-Jan-21 19:24 278 3 gusting 6 3.3 6.7
2020-Jan-21 19:18 030 3 gusting 6 3.3 6.7
2020-Jan-21 19:12 227 1 gusting 2 3.3 6.7
2020-Jan-21 19:06 127 0 gusting 4 3.3 6.7
2020-Jan-21 19:00 350 1 gusting 3 3.3 6.7
2020-Jan-21 18:54 348 1 gusting 2 3.3 6.7
2020-Jan-21 18:48 047 3.3 6.7
2020-Jan-21 18:42 111 1 gusting 3 3.3 6.7
2020-Jan-21 18:36 258 2 gusting 3 3.3 6.7
2020-Jan-21 18:30 215 1 gusting 3 3.3 6.7
2020-Jan-21 18:24 295 5 gusting 6 3.3 6.7
2020-Jan-21 18:18 065 2 gusting 4 2.8 6.7
2020-Jan-21 18:12 311 3 gusting 5 3.3 6.7
2020-Jan-21 18:06 322 4 gusting 6 2.8 6.7
2020-Jan-21 18:00 283 5 gusting 6 2.8 6.7
2020-Jan-21 17:54 261 2.8 6.7
2020-Jan-21 17:48 310 5 gusting 9 2.8 6.7
2020-Jan-21 17:42 324 1 gusting 4 2.8 6.7
2020-Jan-21 17:36 310 4 gusting 5 2.8 6.7
2020-Jan-21 17:30 287 5 gusting 7 2.8 6.7
2020-Jan-21 17:24 248 4 gusting 6 2.2 6.7
2020-Jan-21 17:18 291 5 gusting 7 2.8 6.7
2020-Jan-21 17:12 283 6 gusting 7 2.2 6.7
2020-Jan-21 17:06 330 1 gusting 3 2.8 6.7
2020-Jan-21 17:00 307 3 gusting 5 2.2 6.7
2020-Jan-21 16:54 285 4 gusting 5 1.7 6.7
2020-Jan-21 16:48 310 4 gusting 5 1.7 6.7
2020-Jan-21 16:42 011 2 gusting 3 1.7 6.7
2020-Jan-21 16:36 055 1 gusting 2 1.7 6.7
2020-Jan-21 16:30 228 0 gusting 1 1.7 6.7
2020-Jan-21 16:24 239 1 gusting 2 1.1 6.7
2020-Jan-21 16:18 314 1.7 6.7
2020-Jan-21 16:12 006 1.7 6.7
2020-Jan-21 16:06 114 1.7 6.7
2020-Jan-21 16:00 113 1.1 6.7
2020-Jan-21 15:54 084 1.1 6.7
2020-Jan-21 15:48 031 1.1 6.7
2020-Jan-21 15:42 064 1.1 6.7
2020-Jan-21 15:36 112 1 gusting 2 1.1 6.7
2020-Jan-21 15:30 183 0 gusting 1 1.1 6.7
2020-Jan-21 15:24 125 0 gusting 1 1.1 6.7
2020-Jan-21 15:18 196 1.1 6.7
2020-Jan-21 15:12 303 1.1 6.7
2020-Jan-21 15:06 029 1 gusting 2 1.1 6.7
2020-Jan-21 15:00 289 0 gusting 2 1.1 6.7
2020-Jan-21 14:54 341 1.1 6.7
2020-Jan-21 14:48 180 1.1 6.7
2020-Jan-21 14:42 098 1.1 6.7
2020-Jan-21 14:36 295 0 gusting 1 1.7 6.7
2020-Jan-21 14:30 272 1.1 6.7
2020-Jan-21 14:24 212 1 gusting 2 1.7 6.7
2020-Jan-21 14:18 357 1.7 6.7
2020-Jan-21 14:12 321 0 gusting 3 1.7 6.7
2020-Jan-21 14:06 359 1 gusting 4 1.7 6.7
2020-Jan-21 14:00 345 0 gusting 5 1.7 6.7
2020-Jan-21 13:54 147 1 gusting 2 1.7 6.7
2020-Jan-21 13:48 276 0 gusting 2 1.7 6.7
2020-Jan-21 13:42 338 2 gusting 3 1.7 6.7
2020-Jan-21 13:36 080 0 gusting 1 1.7 6.7
2020-Jan-21 13:30 073 0 gusting 3 1.7 6.7
2020-Jan-21 13:24 224 0 gusting 3 2.2 6.7
2020-Jan-21 13:18 277 2 gusting 4 1.7 6.7
2020-Jan-21 13:12 282 1 gusting 2 2.2 6.7
2020-Jan-21 13:06 352 1 gusting 4 2.2 6.7
2020-Jan-21 13:00 235 2 gusting 3 2.2 6.7
2020-Jan-21 12:54 338 2 gusting 3 2.2 6.7
2020-Jan-21 12:48 235 2.8 6.7
2020-Jan-21 12:42 325 1 gusting 2 2.8 6.7
2020-Jan-21 12:36 024 2 gusting 3 2.8 6.7
2020-Jan-21 12:30 282 0 gusting 2 2.8 6.7
2020-Jan-21 12:24 046 0 gusting 3 2.8 6.7
2020-Jan-21 12:18 038 1 gusting 4 2.8 6.7
2020-Jan-21 12:12 312 3 gusting 6 3.3 6.7
2020-Jan-21 12:06 296 4 gusting 5 3.3 6.7
2020-Jan-21 12:00 062 1 gusting 8 2.8 6.7
2020-Jan-21 11:54 318 2 gusting 4 3.3 6.7
2020-Jan-21 11:48 305 4 gusting 5 3.3 6.7
2020-Jan-21 11:42 308 1 gusting 3 3.3 6.7
2020-Jan-21 11:36 034 3 gusting 6 3.3 6.7
2020-Jan-21 11:30 004 2 gusting 5 3.3 6.7
2020-Jan-21 11:24 022 1 gusting 4 3.3 6.7
2020-Jan-21 11:18 297 3.3 6.7
2020-Jan-21 11:12 309 1 gusting 3 3.3 6.7
2020-Jan-21 11:06 319 1 gusting 3 3.3 6.7
2020-Jan-21 11:00 042 0 gusting 2 3.3 6.7
2020-Jan-21 10:54 313 3 gusting 5 3.3 6.7
2020-Jan-21 10:48 030 1 gusting 3 2.8 6.7
2020-Jan-21 10:42 344 3.3 6.7
2020-Jan-21 10:36 034 1 gusting 3 2.8 6.7
2020-Jan-21 10:30 309 2 gusting 3 2.8 6.7
2020-Jan-21 10:24 335 0 gusting 3 2.8 6.7
2020-Jan-21 10:18 018 1 gusting 3 3.3 6.7
2020-Jan-21 10:12 319 3 gusting 6 3.3 6.7
2020-Jan-21 10:06 321 4 gusting 6 3.3 6.7
2020-Jan-21 10:00 350 2 gusting 7 3.3 6.7
2020-Jan-21 09:54 319 2 gusting 6 3.3 6.7
2020-Jan-21 09:48 324 6 gusting 9 3.9 6.7
2020-Jan-21 09:42 007 3 gusting 6 3.3 6.7
2020-Jan-21 09:36 293 4 gusting 5 3.9 6.7
2020-Jan-21 09:30 291 4 gusting 7 3.9 6.7
2020-Jan-21 09:24 314 3 gusting 6 3.3 6.7
2020-Jan-21 09:18 337 1 gusting 5 3.3 6.7
2020-Jan-21 09:12 311 2 gusting 6 3.3 6.7
2020-Jan-21 09:06 295 3 gusting 6 3.3 6.7
2020-Jan-21 09:00 322 5 gusting 7 3.3 6.7
2020-Jan-21 08:54 002 2 gusting 5 3.3 6.7
2020-Jan-21 08:48 303 6 gusting 9 3.3 6.7
2020-Jan-21 08:42 292 5 gusting 6 3.3 6.7
2020-Jan-21 08:36 025 3 gusting 6 2.8 6.7
2020-Jan-21 08:30 355 1 gusting 4 2.8 6.7
2020-Jan-21 08:24 120 1 gusting 1 2.8 6.7
2020-Jan-21 08:18 080 0 gusting 1 2.8 6.7
2020-Jan-21 08:12 057 1 gusting 1 2.8 6.7
2020-Jan-21 08:06 029 3.3 6.7
2020-Jan-21 08:00 342 0 gusting 7 3.3 6.7
2020-Jan-21 07:54 287 7 gusting 11 3.3 6.7
2020-Jan-21 07:48 287 3 gusting 8 3.3 6.7
2020-Jan-21 07:42 287 3 gusting 6 3.3 6.7
2020-Jan-21 07:36 019 1 gusting 5 3.3 6.7
2020-Jan-21 07:30 316 2 gusting 4 3.9 6.7
2020-Jan-21 07:24 319 4 gusting 6 3.9 6.7
2020-Jan-21 07:18 314 2 gusting 6 3.9 6.7
2020-Jan-21 07:12 317 3 gusting 7 3.9 6.7
2020-Jan-21 07:06 343 2 gusting 5 3.3 6.7
2020-Jan-21 07:00 009 3 gusting 5 3.3 6.7
2020-Jan-21 06:54 013 2 gusting 6 3.3 6.7
2020-Jan-21 06:48 306 6 gusting 6 3.3 6.7
2020-Jan-21 06:42 292 5 gusting 6 3.3 6.7
2020-Jan-21 06:36 338 1 gusting 6 3.3 6.7
2020-Jan-21 06:30 322 2 gusting 4 3.3 6.7
2020-Jan-21 06:24 033 0 gusting 2 3.3 6.7
2020-Jan-21 06:18 323 1 gusting 2 3.3 6.7
2020-Jan-21 06:12 284 0 gusting 2 3.3 6.7
2020-Jan-21 06:06 331 1 gusting 4 3.3 6.7
2020-Jan-21 06:00 287 2 gusting 5 3.3 6.7
2020-Jan-21 05:54 336 2 gusting 4 3.3 6.7
2020-Jan-21 05:48 312 2 gusting 3 3.3 6.7
2020-Jan-21 05:42 265 3.3 6.7
2020-Jan-21 05:36 048 1 gusting 1 3.3 6.7
2020-Jan-21 05:30 252 1 gusting 2 3.3 6.7
2020-Jan-21 05:24 243 0 gusting 2 3.3 6.7
2020-Jan-21 05:18 156 0 gusting 2 3.3 6.7
2020-Jan-21 05:12 308 1 gusting 3 3.3 6.1
2020-Jan-21 05:06 022 3.3 6.1
2020-Jan-21 05:00 297 5 gusting 7 3.9 6.1
2020-Jan-21 04:54 318 3.3 6.7
2020-Jan-21 04:48 293 3 gusting 5 3.9 6.7
2020-Jan-21 04:42 139 2 gusting 3 3.3 6.7
2020-Jan-21 04:36 085 1 gusting 3 3.3 6.7
2020-Jan-21 04:30 008 1 gusting 6 3.9 6.7
2020-Jan-21 04:24 320 1 gusting 3 3.9 6.7
2020-Jan-21 04:18 322 0 gusting 3 3.9 6.7
2020-Jan-21 04:12 348 1 gusting 6 3.9 6.7
2020-Jan-21 04:06 084 3.9 6.7
2020-Jan-21 04:00 013 3.9 6.7
2020-Jan-21 03:54 044 3.9 6.7
2020-Jan-21 03:48 316 3 gusting 4 3.9 6.7
2020-Jan-21 03:42 311 0 gusting 2 3.9 6.7
2020-Jan-21 03:36 309 3 gusting 5 3.9 6.7
2020-Jan-21 03:30 303 1 gusting 3 3.9 6.7
2020-Jan-21 03:24 359 0 gusting 2 4.4 6.7
2020-Jan-21 03:18 254 0 gusting 3 4.4 6.7
2020-Jan-21 03:12 315 2 gusting 3 4.4 6.7
2020-Jan-21 03:06 312 1 gusting 2 4.4 6.7
2020-Jan-21 03:00 333 1 gusting 3 4.4 6.7
2020-Jan-21 02:54 312 1 gusting 2 4.4 6.7
2020-Jan-21 02:48 324 0 gusting 2 5.0 6.1
2020-Jan-21 02:42 337 1 gusting 3 5.0 6.1
2020-Jan-21 02:36 014 1 gusting 6 5.0 6.1
2020-Jan-21 02:30 297 5.0 6.1
2020-Jan-21 02:24 086 2 gusting 6 5.0 6.1
2020-Jan-21 02:18 098 3 gusting 5 5.6 6.1
2020-Jan-21 02:12 108 3 gusting 6 5.0 6.7
2020-Jan-21 02:06 115 2 gusting 4 5.0 6.7
2020-Jan-21 02:00 109 3 gusting 5 5.0 6.7
2020-Jan-21 01:54 116 4 gusting 8 5.0 6.7
2020-Jan-21 01:48 118 6 gusting 11 5.6 6.7
2020-Jan-21 01:42 121 4 gusting 8 5.0 6.7
2020-Jan-21 01:36 120 7 gusting 11 5.6 6.7
2020-Jan-21 01:30 118 4 gusting 7 5.0 6.7
2020-Jan-21 01:24 123 5 gusting 8 5.0 6.7
2020-Jan-21 01:18 108 2 gusting 4 4.4 6.7
2020-Jan-21 01:12 122 1 gusting 2 4.4 6.7
2020-Jan-21 01:06 306 4.4 6.7
2020-Jan-21 01:00 333 0 gusting 3 4.4 6.7
2020-Jan-21 00:54 116 0 gusting 5 4.4 6.7
2020-Jan-21 00:48 126 4 gusting 6 5.0 6.7
2020-Jan-21 00:42 122 3 gusting 8 5.0 6.7
2020-Jan-21 00:36 124 7 gusting 9 5.0 6.7
2020-Jan-21 00:30 125 6 gusting 11 5.0 6.7
2020-Jan-21 00:24 126 7 gusting 12 5.0 6.7
2020-Jan-21 00:18 140 8 gusting 11 5.6 6.7
2020-Jan-21 00:12 129 7 gusting 14 5.0 6.7
2020-Jan-21 00:06 131 12 gusting 15 5.0 6.7
2020-Jan-21 00:00 113 3 gusting 6 4.4 6.7
2020-Jan-20 23:54 080 1 gusting 4 4.4 6.7
2020-Jan-20 23:48 126 3 gusting 6 4.4 6.7
2020-Jan-20 23:42 133 4.4 6.7
2020-Jan-20 23:36 091 1 gusting 6 4.4 6.7
2020-Jan-20 23:30 106 1 gusting 4 4.4 6.7
2020-Jan-20 23:24 224 4.4 6.7
2020-Jan-20 23:18 042 1 gusting 6 4.4 6.7
2020-Jan-20 23:12 167 0 gusting 3 4.4 6.7
2020-Jan-20 23:06 187 4.4 6.7
2020-Jan-20 23:00 045 3.9 6.7
2020-Jan-20 22:54 117 4.4 6.7
2020-Jan-20 22:48 308 4.4 6.7
2020-Jan-20 22:42 017 1 gusting 2 3.9 6.7
2020-Jan-20 22:36 022 1 gusting 4 3.9 6.7
2020-Jan-20 22:30 3.9 6.7
2020-Jan-20 22:24 337 3 gusting 5 3.9 6.7
2020-Jan-20 22:18 265 1 gusting 3 3.9 6.7
2020-Jan-20 22:12 065 1 gusting 5 3.9 6.7
2020-Jan-20 22:06 150 1 gusting 3 3.9 6.7
2020-Jan-20 22:00 105 2 gusting 6 3.9 6.7
2020-Jan-20 21:54 038 0 gusting 3 3.9 6.7
2020-Jan-20 21:48 030 3.9 6.7
2020-Jan-20 21:42 018 1 gusting 2 3.9 6.7
2020-Jan-20 21:36 249 3.9 6.7
2020-Jan-20 21:30 124 3.9 6.7
2020-Jan-20 21:24 341 1 gusting 2 3.9 6.7
2020-Jan-20 21:18 239 3.9 6.7
2020-Jan-20 21:12 092 3.9 6.7
2020-Jan-20 21:06 078 3.3 6.7
2020-Jan-20 21:00 359 3.9 6.7
2020-Jan-20 20:54 336 3.9 6.7
2020-Jan-20 20:48 331 3.9 6.7
2020-Jan-20 20:42 059 0 gusting 1 3.9 6.7
2020-Jan-20 20:36 272 3.9 6.7
2020-Jan-20 20:30 031 1 gusting 2 3.3 6.7
2020-Jan-20 20:24 283 3.3 6.7
2020-Jan-20 20:18 013 0 gusting 2 3.3 6.7
2020-Jan-20 20:12 101 3 gusting 7 3.3 6.7
2020-Jan-20 20:06 149 2 gusting 6 3.3 6.7
2020-Jan-20 20:00 036 2 gusting 3 3.3 6.7
2020-Jan-20 19:54 205 0 gusting 1 3.3 6.7
2020-Jan-20 19:48 080 0 gusting 2 3.3 6.7
2020-Jan-20 19:42 022 1 gusting 2 3.3 6.7
2020-Jan-20 19:36 068 1 gusting 2 3.3 6.7
2020-Jan-20 19:30 330 0 gusting 4 3.3 6.7
2020-Jan-20 19:24 009 3 gusting 4 2.8 6.7
2020-Jan-20 19:18 144 4 gusting 6 3.3 6.7
2020-Jan-20 19:12 129 3 gusting 6 3.3 6.7
2020-Jan-20 19:06 117 4 gusting 6 2.8 6.7
2020-Jan-20 19:00 121 2 gusting 4 2.8 6.7
2020-Jan-20 18:54 108 2 gusting 6 2.8 6.7
2020-Jan-20 18:48 174 1 gusting 3 2.8 6.7
2020-Jan-20 18:42 023 1 gusting 3 2.8 6.7
2020-Jan-20 18:36 029 1 gusting 3 2.8 6.7
2020-Jan-20 18:30 145 2 gusting 3 2.8 6.7
2020-Jan-20 18:24 181 0 gusting 1 2.8 6.7
2020-Jan-20 18:18 064 2.8 6.7
2020-Jan-20 18:12 118 2.2 6.7
2020-Jan-20 18:06 215 2.2 6.7
2020-Jan-20 18:00 060 2.2 6.7
2020-Jan-20 17:54 066 2.2 6.7
2020-Jan-20 17:48 318 2.2 6.7
2020-Jan-20 17:42 355 0 gusting 1 2.2 6.7
2020-Jan-20 17:36 316 2.2 6.7
2020-Jan-20 17:30 311 2.2 6.7
2020-Jan-20 17:24 101 0 gusting 1 2.2 6.7
2020-Jan-20 17:18 287 2.2 6.7
2020-Jan-20 17:12 286 2.2 6.7
2020-Jan-20 17:06 015 2.2 6.7
2020-Jan-20 17:00 013 0 gusting 1 2.2 6.7
2020-Jan-20 16:54 040 2.2 6.7
2020-Jan-20 16:48 114 2.2 6.7
2020-Jan-20 16:42 108 2.2 6.7
2020-Jan-20 16:36 111 0 gusting 1 2.2 6.7
2020-Jan-20 16:30 342 2.8 6.7
2020-Jan-20 16:24 010 0 gusting 1 2.8 6.7
2020-Jan-20 16:18 105 2.2 6.7
2020-Jan-20 16:12 095 2.8 6.7
2020-Jan-20 16:06 117 0 gusting 2 2.8 6.7
2020-Jan-20 16:00 167 2.2 6.7
2020-Jan-20 15:54 008 0 gusting 2 2.8 6.7
2020-Jan-20 15:48 009 1 gusting 1 2.2 6.7
2020-Jan-20 15:42 297 2.8 6.7
2020-Jan-20 15:36 335 0 gusting 1 2.8 6.7
2020-Jan-20 15:30 090 0 gusting 0 2.8 6.7
2020-Jan-20 15:24 123 2.8 6.7
2020-Jan-20 15:18 026 2.8 6.7
2020-Jan-20 15:12 098 2.8 6.7
2020-Jan-20 15:06 354 2.8 6.7
2020-Jan-20 15:00 013 0 gusting 1 2.8 6.7